SCP
0 -0 -0 0 -0 -0 0 -0 0 -0 0 -0 0 -0 -0 0 -0 -0 -0 -0 -0 -0 -0 -0 -0 -0 -0 -0 -0 -0 0 0
0 -0 0 0 0 0 -0 -0 -0 -0 -0 -0 -0 -0 0 -0 -0 0 0 0 -0 -0 -0 -0 -0 -0 -0 -0 -0 -0 -0 0
0 -0 0 0 -0 -0 0 0 -0 0 0 0 0 -0 -0 -0 -0 -0 0 0 0 -0 -0 -0 -0 -0 -0 -0 -0 -0 -0 -0
-0 0 0 0 -0 -0 -0 -0 0 0 0 0 -0 -0 -0 -0 -0 -0 -0 0 0 -0 -0 -0 -0 -0 -0 -0 -0 -0 -0 -0
0 -0 0 0 -0 -0 -0 0 0 0 0 0 0 0 0 -0 -0 -0 0 0 0 0 0 -0 -0 -0 -0 -0 -0 -0 -0 -0
-0 -0 0 0 0 0 -0 0 0 0 0 -0 0 -0 -0 0 -0 -0 0 0 0 0 0 0 0 -0 -0 -0 -0 -0 -0 -0
-0 -0 -0 0 -0 -0 -0 0 0 0 0 -0 -0 -0 -0 0 0 0 0 0 0 0 0 0 0 -0 -0 -0 -0 -0 -0 -0
-0 -0 -0 -0 -0 -0 -0 0 0 0 -0 0 -0 -0 -0 -0 -0 0 0 0 0 0 0 0 0 0 0 0 0 0 0 -0
0 0 -0 -0 0 0 0 0 0 -0 0 -0 0 -0 -0 -0 -0 -0 -0 -0 -0 -0 -0 -0 -0 0 -0 -0 -0 0 0 0
0 0 0 -0 -0 0 0 0 -0 -0 0 -0 -0 -0 -0 -0 -0 -0 -0 -0 -0 -0 -0 -0 0 -0 0 -0 -0 -0 0 0
0 0 0 0 -0 0 0 0 0 0 0 0 -0 -0 -0 -0 -0 -0 -0 -0 -0 -0 -0 -0 -0 0 0 0 0 0 -0 0
0 0 0 0 0 0 0 0 0 0 -0 -0 -0 -0 -0 0 -0 -0 -0 -0 -0 -0 -0 -0 -0 0 0 0 0 0 0 0
0 -0 0 0 0 0 -0 -0 -0 -0 0 -0 -0 -0 -0 0 -0 -0 -0 -0 -0 -0 -0 -0 -0 0 0 0 0 0 0 0
0 0 0 0 0 0 0 -0 -0 -0 0 0 0 -0 -0 -0 -0 -0 -0 -0 -0 -0 -0 -0 -0 0 0 0 0 0 0 0
-0 -0 -0 -0 0 -0 0 0 -0 -0 0 0 0 -0 -0 -0 0 -0 0 0 -0 -0 -0 -0 -0 -0 0 0 0 0 0 0
0 0 0 -0 -0 -0 0 0 0 0 0 0 0 -0 -0 -0 -0 0 0 0 0 0 -0 0 0 0 0 0 0 0 0 0
0 0 -0 0 -0 -0 -0 -0 -0 0 -0 -0 0 0 -0 -0 -0 0 0 0 1 0 0 0 1 1 1 1 0 0 0 0
0 0 0 -0 -0 -0 -0 0 0 0 0 0 0 0 0 0 0 0 0 0 0 1 1 0 1 1 1 1 1 1 0 0
-0 0 0 0 0 0 0 0 0 0 0 0 0 0 0 0 0 0 0 0 0 0 1 2 2 2 2 1 0 0 0 0
0 0 0 0 0 0 0 0 0 0 0 0 0 0 0 0 0 0 0 0 0 0 1 3 2 3 3 1 0 0 0 0
Wind_Speed_500mb
8 6 9 9 11 12 27 41 28 11 8 8 11 25 61 43 55 51 46 46 46 44 40 39 41 41 41 41 40 39 39 37
7 10 11 15 29 63 17 24 18 33 9 14 13 50 41 56 51 49 46 46 46 44 42 41 41 41 41 41 40 38 37 36
2 8 12 14 53 49 22 24 15 13 9 11 37 22 48 48 47 48 48 45 44 43 42 40 40 41 41 41 40 37 36 35
3 9 7 3 44 33 12 21 13 27 17 6 32 41 48 40 45 47 46 46 44 42 41 40 40 40 40 40 39 37 35 34
9 8 6 8 45 18 10 2 14 26 7 27 49 44 44 34 44 42 41 43 44 44 43 40 39 39 39 39 38 36 34 32
4 4 14 21 29 26 22 6 43 26 8 20 55 49 40 40 39 33 35 38 42 43 43 42 41 39 38 38 38 37 35 32
6 3 8 40 19 40 15 9 10 20 16 40 58 57 52 48 46 41 36 37 41 42 42 41 40 39 40 39 39 38 36 33
14 10 3 39 38 38 9 12 17 43 40 64 58 56 54 57 53 47 36 44 41 42 42 42 41 41 40 40 40 39 36 33
36 48 22 38 21 36 27 4 37 62 67 75 67 57 55 62 54 42 25 34 40 41 42 43 43 41 41 39 39 38 36 34
50 62 21 29 46 21 27 35 74 53 57 74 78 69 64 67 64 53 42 30 29 41 41 41 41 42 39 39 39 38 36 35
55 59 38 12 45 31 51 65 63 51 62 76 76 73 73 67 63 60 53 44 42 39 36 37 42 41 39 38 39 35 35 36
42 42 30 14 8 23 53 74 72 54 71 79 72 80 78 77 76 72 63 55 50 49 43 38 42 39 34 31 36 36 35 36
11 12 10 11 2 8 66 79 70 65 67 72 76 77 84 86 87 78 73 62 58 56 52 44 37 41 38 30 35 40 33 31
13 8 15 13 15 18 28 74 63 76 66 70 80 86 86 87 91 92 80 78 66 61 60 54 48 40 42 43 43 43 35 35
20 7 6 6 18 17 37 58 57 63 66 72 74 83 86 84 89 96 92 85 79 74 71 63 57 51 48 50 48 47 43 44
11 19 8 20 26 10 18 29 30 31 55 32 22 32 56 66 76 93 91 89 81 79 79 75 66 64 61 61 56 54 54 56
11 8 3 9 11 57 71 87 79 77 90 74 53 52 37 23 21 33 31 68 98 88 92 87 83 81 77 76 71 70 67 66
11 7 9 57 49 57 72 71 82 82 87 86 89 91 91 49 12 9 12 16 42 66 71 87 82 85 78 79 79 77 77 74
10 8 5 26 34 43 45 71 78 80 76 84 82 83 87 103 78 52 53 39 12 30 46 69 77 75 78 69 61 57 71 76
5 8 7 5 11 36 27 41 67 82 92 88 84 77 85 88 99 88 87 76 33 11 25 23 59 71 69 68 50 35 45 62
Wind_Direction_500mb
94 117 168 187 219 271 265 278 255 272 54 78 120 141 148 164 158 157 162 159 161 162 161 153 149 146 143 141 139 138 134 132
111 203 243 195 200 220 349 330 278 219 71 80 156 144 154 153 156 160 161 160 160 161 159 156 153 149 147 146 144 142 139 136
208 259 260 207 207 200 236 286 159 175 129 102 158 168 157 157 166 168 162 160 161 161 159 158 157 154 154 152 150 149 147 144
321 316 273 243 204 209 224 259 86 107 96 67 161 160 153 164 169 170 167 162 163 161 162 162 162 161 159 158 157 157 156 153
184 258 252 195 197 243 313 279 71 132 77 145 156 156 150 156 166 167 170 167 167 166 165 167 167 167 165 164 166 166 166 163
305 94 252 209 144 226 226 66 120 133 151 174 166 161 154 151 158 163 177 175 174 173 172 173 172 172 172 173 175 176 176 174
257 0 346 145 167 220 186 121 123 219 255 202 161 172 166 170 174 173 180 189 184 181 178 179 179 178 180 181 184 184 185 182
206 216 130 176 187 187 192 162 113 117 141 157 172 179 180 183 182 182 187 190 193 190 187 187 187 188 186 189 191 191 192 190
279 284 156 185 208 181 138 23 154 134 152 163 177 193 197 194 195 195 192 193 203 201 197 196 195 194 194 194 197 197 198 198
270 281 287 181 191 205 190 181 157 161 176 173 179 196 199 203 201 197 199 204 205 204 210 206 205 205 204 203 203 203 204 204
275 281 285 237 196 181 210 180 178 171 178 174 183 191 206 216 215 213 206 209 208 199 203 210 212 209 211 214 216 214 213 213
290 290 278 199 215 153 181 172 179 176 184 185 187 193 198 212 219 221 220 213 211 208 205 209 209 207 211 224 226 221 222 223
280 278 286 168 0 257 176 182 187 193 195 199 194 196 203 205 216 224 227 220 218 215 211 219 221 223 220 229 224 219 218 215
286 334 294 93 269 268 187 183 198 210 219 204 200 206 203 207 215 220 221 222 220 219 221 221 224 228 234 227 232 229 227 231
326 323 309 124 263 261 176 186 198 214 219 221 213 216 217 211 216 219 219 221 219 216 222 227 229 230 234 229 230 236 237 241
269 289 182 245 251 287 107 48 22 14 251 256 284 306 266 249 231 223 220 221 222 220 223 222 228 224 228 228 229 231 237 244
242 227 203 312 43 46 50 59 59 49 45 51 35 13 360 286 313 251 234 226 216 222 222 217 216 218 223 226 226 228 230 238
275 289 100 72 61 51 44 49 53 48 47 44 40 35 35 38 35 28 251 245 237 231 226 220 222 221 230 231 231 231 230 231
218 337 57 117 65 45 45 50 49 51 50 44 40 37 32 34 40 34 24 9 301 242 242 236 231 234 232 235 244 254 246 238
61 71 167 50 164 45 43 50 42 38 35 31 24 31 31 33 30 30 29 29 13 261 247 270 246 237 235 234 237 247 272 268
Wind_Speed_850mb
8 6 9 9 11 12 27 41 28 11 8 8 11 25 61 43 55 51 46 46 46 44 40 39 41 41 41 41 40 39 39 37
7 10 11 15 29 63 17 24 18 33 9 14 13 50 41 56 51 49 46 46 46 44 42 41 41 41 41 41 40 38 37 36
2 8 12 14 53 49 22 24 15 13 9 11 37 22 48 48 47 48 48 45 44 43 42 40 40 41 41 41 40 37 36 35
3 9 7 3 44 33 12 21 13 27 17 6 32 41 48 40 45 47 46 46 44 42 41 40 40 40 40 40 39 37 35 34
9 8 6 8 45 18 10 2 14 26 7 27 49 44 44 34 44 42 41 43 44 44 43 40 39 39 39 39 38 36 34 32
4 4 14 21 29 26 22 6 43 26 8 20 55 49 40 40 39 33 35 38 42 43 43 42 41 39 38 38 38 37 35 32
6 3 8 40 19 40 15 9 10 20 16 40 58 57 52 48 46 41 36 37 41 42 42 41 40 39 40 39 39 38 36 33
14 10 3 39 38 38 9 12 17 43 40 64 58 56 54 57 53 47 36 44 41 42 42 42 41 41 40 40 40 39 36 33
36 48 22 38 21 36 27 4 37 62 67 75 67 57 55 62 54 42 25 34 40 41 42 43 43 41 41 39 39 38 36 34
50 62 21 29 46 21 27 35 74 53 57 74 78 69 64 67 64 53 42 30 29 41 41 41 41 42 39 39 39 38 36 35
55 59 38 12 45 31 51 65 63 51 62 76 76 73 73 67 63 60 53 44 42 39 36 37 42 41 39 38 39 35 35 36
42 42 30 14 8 23 53 74 72 54 71 79 72 80 78 77 76 72 63 55 50 49 43 38 42 39 34 31 36 36 35 36
11 12 10 11 2 8 66 79 70 65 67 72 76 77 84 86 87 78 73 62 58 56 52 44 37 41 38 30 35 40 33 31
13 8 15 13 15 18 28 74 63 76 66 70 80 86 86 87 91 92 80 78 66 61 60 54 48 40 42 43 43 43 35 35
20 7 6 6 18 17 37 58 57 63 66 72 74 83 86 84 89 96 92 85 79 74 71 63 57 51 48 50 48 47 43 44
11 19 8 20 26 10 18 29 30 31 55 32 22 32 56 66 76 93 91 89 81 79 79 75 66 64 61 61 56 54 54 56
11 8 3 9 11 57 71 87 79 77 90 74 53 52 37 23 21 33 31 68 98 88 92 87 83 81 77 76 71 70 67 66
11 7 9 57 49 57 72 71 82 82 87 86 89 91 91 49 12 9 12 16 42 66 71 87 82 85 78 79 79 77 77 74
10 8 5 26 34 43 45 71 78 80 76 84 82 83 87 103 78 52 53 39 12 30 46 69 77 75 78 69 61 57 71 76
5 8 7 5 11 36 27 41 67 82 92 88 84 77 85 88 99 88 87 76 33 11 25 23 59 71 69 68 50 35 45 62
Wind_Direction_850mb
94 117 168 187 219 271 265 278 255 272 54 78 120 141 148 164 158 157 162 159 161 162 161 153 149 146 143 141 139 138 134 132
111 203 243 195 200 220 349 330 278 219 71 80 156 144 154 153 156 160 161 160 160 161 159 156 153 149 147 146 144 142 139 136
208 259 260 207 207 200 236 286 159 175 129 102 158 168 157 157 166 168 162 160 161 161 159 158 157 154 154 152 150 149 147 144
321 316 273 243 204 209 224 259 86 107 96 67 161 160 153 164 169 170 167 162 163 161 162 162 162 161 159 158 157 157 156 153
184 258 252 195 197 243 313 279 71 132 77 145 156 156 150 156 166 167 170 167 167 166 165 167 167 167 165 164 166 166 166 163
305 94 252 209 144 226 226 66 120 133 151 174 166 161 154 151 158 163 177 175 174 173 172 173 172 172 172 173 175 176 176 174
257 0 346 145 167 220 186 121 123 219 255 202 161 172 166 170 174 173 180 189 184 181 178 179 179 178 180 181 184 184 185 182
206 216 130 176 187 187 192 162 113 117 141 157 172 179 180 183 182 182 187 190 193 190 187 187 187 188 186 189 191 191 192 190
279 284 156 185 208 181 138 23 154 134 152 163 177 193 197 194 195 195 192 193 203 201 197 196 195 194 194 194 197 197 198 198
270 281 287 181 191 205 190 181 157 161 176 173 179 196 199 203 201 197 199 204 205 204 210 206 205 205 204 203 203 203 204 204
275 281 285 237 196 181 210 180 178 171 178 174 183 191 206 216 215 213 206 209 208 199 203 210 212 209 211 214 216 214 213 213
290 290 278 199 215 153 181 172 179 176 184 185 187 193 198 212 219 221 220 213 211 208 205 209 209 207 211 224 226 221 222 223
280 278 286 168 0 257 176 182 187 193 195 199 194 196 203 205 216 224 227 220 218 215 211 219 221 223 220 229 224 219 218 215
286 334 294 93 269 268 187 183 198 210 219 204 200 206 203 207 215 220 221 222 220 219 221 221 224 228 234 227 232 229 227 231
326 323 309 124 263 261 176 186 198 214 219 221 213 216 217 211 216 219 219 221 219 216 222 227 229 230 234 229 230 236 237 241
269 289 182 245 251 287 107 48 22 14 251 256 284 306 266 249 231 223 220 221 222 220 223 222 228 224 228 228 229 231 237 244
242 227 203 312 43 46 50 59 59 49 45 51 35 13 360 286 313 251 234 226 216 222 222 217 216 218 223 226 226 228 230 238
275 289 100 72 61 51 44 49 53 48 47 44 40 35 35 38 35 28 251 245 237 231 226 220 222 221 230 231 231 231 230 231
218 337 57 117 65 45 45 50 49 51 50 44 40 37 32 34 40 34 24 9 301 242 242 236 231 234 232 235 244 254 246 238
61 71 167 50 164 45 43 50 42 38 35 31 24 31 31 33 30 30 29 29 13 261 247 270 246 237 235 234 237 247 272 268